Flag for Pakistan Weather past 2 weeks in Sargodha, Pakistan

Now
72 °F

Clear.


Feels Like: 74 °F
Forecast: 66 / 91 °F
Wind: 3 mph from Northeast

Location: Lahore Airport

Current Time: Oct 24, 2014 at 2:58:33 AM

Latest Report: Oct 24, 2014 at 1:55 AM


Visibility: 2 mi

Pressure: 29.95 "Hg

Humidity: 73%

Dew point: 63 °F

Location of SargodhaLocation

Historic Weather in Sargodha — Graph

°F

Sargodha temperature yesterday

Maximum temperature yesterday: 91 °F (at 1:59 PM)
Minimum temperature yesterday: 66 °F (at 6:25 AM)
Average temperature yesterday: 79 °F

Past Weeks' High & Low Weather Summary

 TemperatureHumidityPressure
High93 °F (Oct 11, 3:25 PM)94% (Oct 18, 5:55 AM)30.09 "Hg (Oct 18, 5:55 AM)
Low61 °F (Oct 15, 5:55 AM)28% (Oct 12, 3:55 PM)29.65 "Hg (Oct 15, 12:25 AM)
Average77 °F58%29.94 "Hg
* Reported Oct 9 1:55 AM — Oct 24 1:55 AM, Sargodha, Weather by CustomWeather, © 2014

Note: Actual official high and low records may vary slightly from our data, if they occured in-between our weather recording intervals... More about our weather records

Advertising

Sargodha weather history for previous 24 hours

 ConditionsComfort  
Time TempWeatherWind HumidityBarometerVisibility
1:55 AM
Oct 24
72 °FClear.3 mph73%29.95 "Hg2 mi
1:25 AM72 °FClear.No wind73%29.95 "Hg2 mi
12:55 AM73 °FClear.3 mph69%29.95 "Hg2 mi
12:25 AM75 °FClear.No wind69%29.95 "Hg2 mi
11:55 PM
Oct 23
75 °FClear.No wind69%29.92 "Hg2 mi
11:25 PM77 °FClear.No wind61%29.95 "Hg2 mi
10:55 PM77 °FClear.No wind61%29.92 "Hg2 mi
10:25 PM77 °FClear.No wind61%29.92 "Hg2 mi
9:55 PM77 °FClear.No wind61%29.92 "Hg2 mi
8:55 PM82 °FClear.3 mph48%29.92 "Hg2 mi
8:25 PM82 °FHaze.3 mph48%29.92 "Hg3 mi
7:55 PM82 °FHaze.No wind48%29.92 "Hg3 mi
7:25 PM84 °FHaze.No wind45%29.89 "Hg3 mi
6:55 PM84 °FHaze.No wind45%29.89 "Hg3 mi
6:25 PM84 °FHaze.No wind45%29.89 "Hg3 mi
5:55 PM86 °FHaze.N/A43%29.89 "Hg3 mi
5:25 PM88 °FHaze.5 mph40%29.89 "Hg3 mi
3:59 PM90 °FClear.N/A38%29.89 "Hg4 mi
3:29 PM91 °FClear.No wind38%29.89 "Hg4 mi
2:59 PM91 °FClear.3 mph38%29.92 "Hg4 mi
1:59 PM91 °FClear.No wind38%29.92 "Hg4 mi
1:29 PM90 °FClear.No wind41%29.95 "Hg4 mi
12:59 PM90 °FClear.No wind41%29.95 "Hg4 mi
11:59 AM88 °FClear.3 mph46%29.98 "Hg4 mi
11:29 AM86 °FClear.No wind46%30.01 "Hg4 mi
10:59 AM84 °FClear.5 mph48%30.01 "Hg4 mi
10:29 AM82 °FClear.5 mph55%30.01 "Hg3 mi
9:59 AM81 °FClear.3 mph58%30.01 "Hg3 mi
8:55 AM77 °FClear.3 mph61%30.01 "Hg2 mi
8:25 AM73 °FClear.3 mph69%30.01 "Hg2 mi
7:55 AM72 °FClear.No wind73%30.01 "Hg1 mi
7:25 AM68 °FFog.No wind88%30.01 "Hg1 mi
6:55 AM66 °FFog.No wind88%29.98 "Hg1 mi
6:25 AM66 °FFog.No wind88%29.98 "Hg1 mi
5:55 AM68 °FFog.No wind83%29.98 "Hg2 mi
5:25 AM68 °FClear.No wind83%29.98 "Hg2 mi
4:55 AM70 °FClear.No wind73%29.95 "Hg2 mi
3:25 AM70 °FClear.No wind73%29.95 "Hg2 mi
2:55 AM70 °FClear.No wind73%29.95 "Hg2 mi
2:25 AM72 °FClear.No wind69%29.98 "Hg2 mi
Weather by CustomWeather, © 2014

See weather overviewHow to use our weather pages